Weather reports worldwide

Advertisment
Lichteiland Goeree, Netherlands (6320): temperature & dewpoint: 17.10.2020 01:00:00 - 23.10.2020 01:00:00 (CEST)Lichteiland Goeree, Netherlands (6320): water temperature: 17.10.2020 01:00:00 - 23.10.2020 01:00:00 (CEST)Lichteiland Goeree, Netherlands (6320): wind speed & gusts: 17.10.2020 01:00:00 - 23.10.2020 01:00:00 (CEST)Lichteiland Goeree, Netherlands (6320): wind direction: 17.10.2020 01:00:00 - 23.10.2020 01:00:00 (CEST)Lichteiland Goeree, Netherlands (6320): reduced air pressure: 17.10.2020 01:00:00 - 23.10.2020 01:00:00 (CEST)Lichteiland Goeree, Netherlands (6320): visibility: 17.10.2020 01:00:00 - 23.10.2020 01:00:00 (CEST)
Date & Time tt [°C] td [°C] tw [°C] ff [km/h] ff [kn] fx [km/h] fx [kn] dd ppp [hPa] vv [km]
23.10.2020 01:00:00 14,1 12,9 14,0 26 14 29 16 WSW 1011,3 10
23.10.2020 00:00:00 14,0 12,7 14,0 22 12 32 18 SW 1011,1 10
22.10.2020 23:00:00 14,2 12,4 14,0 28 15 32 18 WSW 1011,0 10
22.10.2020 22:00:00 14,2 12,3 14,0 31 17 36 19 WSW 1010,8 10
22.10.2020 21:00:00 14,3 12,3 14,0 31 17 36 19 SW 1010,5 10
22.10.2020 20:00:00 14,7 12,0 14,0 35 19 40 21 SW 1010,4 10
22.10.2020 19:00:00 14,5 12,2 14,0 35 19 36 19 SW 1009,8 10
22.10.2020 18:00:00 14,7 11,9 14,0 35 19 40 21 SW 1009,5 10
22.10.2020 17:00:00 14,7 11,9 14,0 32 18 47 25 SW 1009,1 18
22.10.2020 16:00:00 14,5 11,8 14,0 39 21 43 23 SSW 1009,1 10
22.10.2020 15:00:00 14,1 11,7 14,0 39 21 43 23 SSW 1009,1 10
22.10.2020 14:00:00 14,1 11,6 14,0 41 22 43 23 SW 1009,5 10
22.10.2020 13:00:00 13,9 11,5 14,0 41 22 47 25 SW 1009,6 10
22.10.2020 12:00:00 13,5 11,6 14,0 39 21 47 25 SW 1009,6 10
22.10.2020 11:00:00 13,3 11,4 14,0 44 24 47 25 SSW 1009,2 10
22.10.2020 10:00:00 13,4 11,8 14,0 42 23 47 25 SW 1008,9 10
22.10.2020 09:00:00 13,6 12,1 14,0 40 21 47 25 SW 1008,3 15
22.10.2020 08:00:00 13,6 12,2 14,0 46 25 50 27 SW 1007,5 10
22.10.2020 07:00:00 13,8 12,2 14,0 43 23 54 29 SW 1007,3 17
22.10.2020 06:00:00 14,0 12,5 14,0 54 29 54 29 SW 1007,0 10
22.10.2020 05:00:00 14,3 12,9 14,0 41 22 43 23 SW 1006,6 10
22.10.2020 04:00:00 14,4 13,0 14,0 44 24 47 25 SSW 1006,6 10
22.10.2020 03:00:00 14,5 13,1 14,0 44 24 47 25 SW 1006,3 10
22.10.2020 02:00:00 14,6 13,4 14,0 41 22 47 25 SW 1006,1 10
22.10.2020 01:00:00 14,6 13,4 14,0 41 22 43 23 SW 1005,5 10
22.10.2020 00:00:00 14,3 13,3 14,0 39 21 43 23 SW 1005,0 10
21.10.2020 23:00:00 14,8 13,6 14,0 42 23 61 33 WSW 1004,4 10
21.10.2020 22:00:00 15,2 13,0 14,0 59 32 76 41 W 1003,0 10
21.10.2020 21:00:00 15,4 13,2 14,0 70 38 79 43 SW 1001,0 10
21.10.2020 20:00:00 15,4 13,2 14,0 68 37 83 45 SW 999,6 10
21.10.2020 19:00:00 15,9 13,4 14,0 70 38 79 43 SW 997,5 10
21.10.2020 18:00:00 16,4 13,2 14,0 63 34 79 43 SW 996,5 10
21.10.2020 17:00:00 16,8 13,8 14,0 68 37 79 43 SW 995,8 10
21.10.2020 16:00:00 17,3 13,6 14,0 65 35 83 45 SSW 995,0 10
21.10.2020 15:00:00 17,7 13,2 14,0 57 31 65 35 SSW 993,9 10
21.10.2020 14:00:00 17,3 12,8 14,0 54 29 58 31 S 994,5 10
21.10.2020 13:00:00 14,8 12,2 14,0 52 28 54 29 SSE 995,8 10
21.10.2020 12:00:00 13,6 12,9 14,0 46 25 50 27 SSE 997,0 10
21.10.2020 11:00:00 13,2 12,8 14,1 43 23 54 29 S 998,3 4,9
21.10.2020 10:00:00 13,3 12,8 14,0 42 23 47 25 S 999,3 7
21.10.2020 09:00:00 13,0 12,8 14,1 37 20 40 21 SSE 999,7 4,0
21.10.2020 08:00:00 13,3 13,0 14,1 34 18 40 21 SSE 1000,0 7
21.10.2020 07:00:00 13,5 13,1 14,2 34 18 36 19 S 1000,8 8
21.10.2020 06:00:00 13,7 13,1 14,0 35 19 40 21 S 1001,4 10
21.10.2020 05:00:00 13,7 13,2 14,0 31 17 32 18 S 1001,7 10
21.10.2020 04:00:00 14,0 13,3 14,0 29 16 32 18 S 1002,6 10
21.10.2020 03:00:00 14,4 13,3 14,0 29 16 32 18 S 1003,3 10
21.10.2020 02:00:00 14,7 13,3 14,0 31 17 32 18 S 1003,8 10
21.10.2020 01:00:00 14,6 13,2 14,0 29 16 29 16 S 1004,5 10
21.10.2020 00:00:00 14,6 13,3 14,0 28 15 36 19 S 1004,7 10
20.10.2020 23:00:00 14,6 13,3 14,0 34 18 36 19 S 1004,8 10
20.10.2020 22:00:00 14,6 13,2 14,0 35 19 40 21 S 1004,8 10
20.10.2020 21:00:00 14,7 13,0 14,0 37 20 43 23 S 1005,0 10
20.10.2020 20:00:00 14,8 12,7 14,0 35 19 36 19 S 1005,3 10
20.10.2020 19:00:00 14,9 12,4 14,0 34 18 40 21 S 1005,2 10
20.10.2020 18:00:00 14,8 12,2 14,0 39 21 40 21 SSW 1005,3 10
20.10.2020 17:00:00 14,4 12,2 14,0 32 18 43 23 SSW 1005,4 20
20.10.2020 16:00:00 14,3 12,0 14,0 39 21 47 25 S 1005,7 10
20.10.2020 15:00:00 14,1 11,6 14,0 36 19 43 23 S 1005,7 18
20.10.2020 14:00:00 13,8 11,0 14,0 36 19 47 25 SSW 1005,6 18
20.10.2020 13:00:00 13,3 10,3 14,0 42 23 47 25 S 1005,5 10
20.10.2020 12:00:00 13,1 10,0 14,0 42 23 43 23 SSW 1006,0 10
20.10.2020 11:00:00 12,7 9,1 14,0 39 21 43 23 S 1005,7 10
20.10.2020 10:00:00 12,5 8,9 14,0 42 23 47 25 SSW 1005,9 10
20.10.2020 09:00:00 12,4 8,8 14,0 41 22 47 25 SSW 1005,6 10
20.10.2020 08:00:00 11,9 8,4 14,0 34 18 36 19 S 1005,6 10
20.10.2020 07:00:00 11,5 8,0 14,0 34 18 40 21 S 1005,8 10
20.10.2020 06:00:00 11,4 7,3 14,0 39 21 43 23 S 1007,0 10
20.10.2020 05:00:00 11,3 7,2 14,0 42 23 47 25 SSE 1007,0 10
20.10.2020 04:00:00 11,2 6,5 14,0 42 23 47 25 SSE 1008,3 10
20.10.2020 03:00:00 11,3 6,7 14,0 41 22 47 25 SSE 1009,6 10
20.10.2020 02:00:00 11,4 6,5 14,0 41 22 47 25 SSE 1010,5 10
20.10.2020 01:00:00 11,5 7,3 14,0 41 22 43 23 SSE 1011,3 10
20.10.2020 00:00:00 11,7 7,6 14,0 37 20 40 21 SSE 1012,2 10
19.10.2020 23:00:00 11,9 7,7 14,0 34 18 40 21 SSE 1013,7 10
19.10.2020 22:00:00 12,3 8,1 14,0 34 18 36 19 SSE 1014,3 10
19.10.2020 21:00:00 12,5 8,7 14,0 31 17 36 19 SSE 1015,0 10
19.10.2020 20:00:00 12,7 9,1 14,0 29 16 32 18 SSE 1015,8 10
19.10.2020 19:00:00 13,1 8,5 14,0 31 17 32 18 SSE 1015,7 10
19.10.2020 18:00:00 13,2 8,2 14,0 31 17 32 18 SSE 1016,2 10
19.10.2020 17:00:00 13,4 7,9 14,0 29 16 29 16 S 1016,9 10
19.10.2020 16:00:00 13,3 7,8 14,0 25 14 29 16 S 1018,0 20
19.10.2020 15:00:00 12,4 8,0 14,0 22 12 25 14 SSW 1018,6 10
19.10.2020 14:00:00 12,0 8,1 14,0 25 14 29 16 SSW 1019,4 20
19.10.2020 13:00:00 11,8 8,2 14,0 24 13 29 16 S 1019,9 10
19.10.2020 12:00:00 11,6 8,1 14,0 26 14 - - SSW 1020,3 10
19.10.2020 11:00:00 11,8 7,4 14,0 25 14 29 16 SSW 1020,5 40
19.10.2020 10:00:00 12,0 8,4 14,0 26 14 32 18 SSW 1020,6 10
19.10.2020 09:00:00 12,2 5,6 14,0 34 18 32 18 SW 1020,3 10
19.10.2020 08:00:00 11,5 8,7 14,0 22 12 25 14 S 1020,2 24
19.10.2020 07:00:00 11,7 8,0 15,0 18 10 22 12 SSW 1020,9 10
19.10.2020 06:00:00 11,1 8,5 14,0 15 8 18 10 SSW 1021,1 10
19.10.2020 05:00:00 11,1 7,8 14,0 8 4 14 8 S 1021,5 10
19.10.2020 04:00:00 10,9 7,6 14,0 2 1 11 6 - 1022,0 10
19.10.2020 03:00:00 10,7 7,8 14,4 8 4 18 10 N 1022,4 10
19.10.2020 02:00:00 11,1 7,6 14,0 15 8 18 10 NNW 1022,2 10
19.10.2020 01:00:00 11,3 8,0 14,0 7 4 22 12 NNW 1022,3 43
19.10.2020 00:00:00 10,9 8,5 14,0 16 9 29 16 NNW 1022,5 10
18.10.2020 23:00:00 10,9 8,2 14,0 18 10 29 16 NW 1022,5 8
18.10.2020 22:00:00 11,6 7,3 14,0 16 9 32 18 NW 1022,3 10
18.10.2020 21:00:00 11,3 7,5 15,0 16 9 32 18 NW 1022,4 10
18.10.2020 20:00:00 11,6 6,9 14,0 24 13 29 16 NW 1022,6 10
18.10.2020 19:00:00 12,2 7,4 15,0 22 12 25 14 NW 1021,7 10
18.10.2020 18:00:00 12,2 7,4 14,0 16 9 22 12 NW 1021,4 10
18.10.2020 17:00:00 12,1 7,6 14,0 21 11 25 14 NNW 1021,6 10
18.10.2020 16:00:00 11,9 7,7 14,0 22 12 29 16 NNW 1021,6 37
18.10.2020 15:00:00 12,2 7,9 14,0 22 12 29 16 NNW 1021,8 10
18.10.2020 14:00:00 12,4 7,6 14,0 29 16 32 18 NNW 1022,3 28
18.10.2020 13:00:00 12,0 9,0 14,4 4 2 22 12 NNW 1022,5 29
18.10.2020 12:00:00 12,7 7,6 14,0 13 7 22 12 N 1022,3 10
18.10.2020 11:00:00 12,8 8,1 14,0 13 7 22 12 N 1022,0 10
18.10.2020 10:00:00 12,9 7,1 15,0 16 9 22 12 N 1021,8 10
18.10.2020 09:00:00 13,1 6,6 15,0 14 8 22 12 N 1021,4 34
18.10.2020 08:00:00 13,0 7,8 15,0 9 5 22 12 NW 1020,9 10
18.10.2020 07:00:00 12,1 8,9 15,0 16 9 25 14 W 1021,0 10
18.10.2020 06:00:00 12,7 8,9 15,0 11 6 14 8 W 1021,1 37
18.10.2020 05:00:00 12,7 8,4 15,0 11 6 14 8 W 1021,1 40
18.10.2020 04:00:00 12,6 8,3 15,0 13 7 18 10 WNW 1021,5 10
18.10.2020 03:00:00 12,5 8,2 15,0 11 6 14 8 W 1021,6 38
18.10.2020 02:00:00 12,5 8,5 14,0 11 6 14 8 W 1021,5 10
18.10.2020 01:00:00 12,3 8,7 14,0 15 8 14 8 SW 1021,4 10
18.10.2020 00:00:00 12,1 8,9 14,0 5 3 11 6 SW 1021,5 10
17.10.2020 23:00:00 12,0 8,7 14,0 5 3 7 4 SSW 1021,6 10
17.10.2020 22:00:00 12,0 8,6 14,0 5 3 7 4 WSW 1021,5 10
17.10.2020 21:00:00 12,0 8,0 14,0 2 1 7 4 - 1021,4 10
17.10.2020 20:00:00 11,7 8,0 14,5 5 3 11 6 WNW 1021,3 10
17.10.2020 19:00:00 11,5 8,8 15,0 13 7 18 10 W 1020,4 10
17.10.2020 18:00:00 11,7 8,8 14,6 13 7 14 8 W 1020,1 10
17.10.2020 17:00:00 11,3 9,0 15,0 9 5 11 6 W 1020,2 10
17.10.2020 16:00:00 11,2 9,0 15,0 13 7 14 8 WSW 1020,3 10
17.10.2020 15:00:00 11,4 9,1 15,0 5 3 11 6 SSW 1020,4 10
17.10.2020 14:00:00 10,9 9,2 15,0 11 6 11 6 SSW 1020,5 10
17.10.2020 13:00:00 10,7 10,0 15,0 11 6 14 8 SW 1020,8 5
17.10.2020 12:00:00 10,8 9,5 15,0 13 7 18 10 SSW 1020,7 10
17.10.2020 11:00:00 10,6 9,3 15,0 13 7 14 8 S 1020,6 10
17.10.2020 10:00:00 10,7 8,9 14,0 13 7 18 10 SE 1020,8 10
17.10.2020 09:00:00 10,9 9,5 14,0 18 10 22 12 ENE 1020,4 10
17.10.2020 08:00:00 11,1 9,2 14,0 15 8 18 10 NNW 1020,3 10
17.10.2020 07:00:00 11,6 7,2 15,0 9 5 11 6 W 1020,9 10
17.10.2020 06:00:00 11,2 6,4 15,0 9 5 11 6 SW 1021,0 10
17.10.2020 05:00:00 11,1 6,1 15,0 8 4 11 6 WSW 1021,4 10
17.10.2020 04:00:00 10,9 5,7 15,0 4 2 7 4 - 1021,8 10
17.10.2020 03:00:00 10,9 5,6 15,0 5 3 11 6 S 1022,2 10
17.10.2020 02:00:00 11,1 5,4 15,0 11 6 14 8 SE 1022,4 10
17.10.2020 01:00:00 11,1 5,0 15,0 9 5 14 8 ESE 1023,0 10

tt = temperature
td = dewpoint
tw = water temperature
ff = wind speed
fx = gusts
dd = wind direction
ppp = reduced air pressure
vv = visibility

Next stations